Alturas, CA

3:23 PM PST on November 22, 2017 (GMT -0800)
Alturas Municipal

Weather History for KAAT - January, 2014

Change the Weather History Date:

Friday, January 10, 2014

  Actual Average Record
Temperature  
Mean Temperature 31 °F 29 °F  
Max Temperature 45 °F 41 °F 60 °F (1986)
Min Temperature 17 °F 18 °F -21 °F (1909)
Degree Days  
Heating Degree Days 34 36  
Month to date heating degree days 319 360  
Since 1 July heating degree days 3336 3270  
Cooling Degree Days 0 0  
Month to date cooling degree days 0 0  
Year to date cooling degree days 0 0  
Moisture  
Dew Point 27 °F    
Average Humidity 82    
Maximum Humidity 96    
Minimum Humidity 67    
Precipitation  
Precipitation T in 0.06 in 0.73 in (1968)
Month to date precipitation 0.01 0.69  
Year to date precipitation 0.01 0.69  
Snow  
Snow 0.00 in - - ()
Month to date snowfall  
Since 1 July snowfall 0.0  
Snow Depth -    
Sea Level Pressure  
Sea Level Pressure 30.25 in    
Wind  
Wind Speed 1 mph (North)    
Max Wind Speed 7 mph    
Max Gust Speed 8 mph    
Visibility 8 miles    
Events Rain    
T = Trace of Precipitation, MM = Missing Value Source: NWS Daily Summary

Daily Weather History Graph

Daily Weather History Graph

Search for Another Location

Airport or City:

Trip Planner

Search our weather history database for the weather conditions in past years. The results will help you decide how hot, cold, wet, or windy it might be!

Date:

Astronomy

Jan. 10, 2014 Rise Set
Actual Time 7:28 AM PST 4:52 PM PST
Civil Twilight 6:57 AM PST 5:22 PM PST
Nautical Twilight 6:22 AM PST 5:57 PM PST
Astronomical Twilight 5:49 AM PST 6:30 PM PST
Moon 1:00 PM PST (1/10) 2:39 AM PST (1/10)
Length of Visible Light 10h 25m
Length of Day
9h 24m
Waxing Gibbous, 76% of the Moon is Illuminated
Jan 10
Waxing Gibbous
Jan 15
Full
Jan 23
Last Quarter
Jan 30
New
Feb 6
First Quarter

Hourly Weather History & Observations

Time (PST) Temp. Windchill Dew Point Humidity Pressure Visibility Wind Dir Wind Speed Gust Speed Precip Events Conditions
12:55 AM 25.0 °F - 23.0 °F 92% 30.20 in 5.0 mi Calm Calm - N/A   Clear
1:55 AM 26.1 °F - 23.0 °F 88% 30.23 in 10.0 mi Calm Calm - N/A   Clear
2:55 AM 24.1 °F - 21.0 °F 88% 30.24 in 10.0 mi Calm Calm - N/A   Clear
3:55 AM 23.0 °F - 21.9 °F 96% 30.25 in 10.0 mi Calm Calm - N/A   Clear
4:55 AM 19.9 °F 14.9 °F 18.0 °F 92% 30.26 in 10.0 mi Variable 3.5 mph - N/A   Clear
5:55 AM 19.0 °F - 16.0 °F 88% 30.29 in 6.0 mi Calm Calm - N/A   Mostly Cloudy
6:55 AM 18.0 °F - 15.1 °F 88% 30.29 in 9.0 mi Calm Calm - N/A   Clear
7:55 AM 23.0 °F - 19.9 °F 88% 30.29 in 5.0 mi Calm Calm - N/A   Mostly Cloudy
8:19 AM 24.1 °F - 21.9 °F 91% 30.23 in 2.5 mi Calm Calm - N/A   Overcast
8:27 AM 24.1 °F - 21.9 °F 91% 30.24 in 3.0 mi Calm Calm - N/A   Overcast
8:55 AM 27.0 °F - 24.1 °F 89% 30.30 in 4.0 mi Calm Calm - N/A   Overcast
9:55 AM 32.0 °F - 28.9 °F 88% 30.32 in 10.0 mi Calm Calm - N/A   Overcast
10:55 AM 36.0 °F - 30.0 °F 79% 30.31 in 10.0 mi Calm Calm - N/A   Overcast
11:55 AM 39.9 °F - 30.9 °F 70% 30.27 in 10.0 mi Calm Calm - N/A   Overcast
12:55 PM 43.0 °F 41.3 °F 32.0 °F 65% 30.26 in 10.0 mi WNW 3.5 mph - N/A   Overcast
1:55 PM 44.1 °F - 33.1 °F 65% 30.25 in 10.0 mi Calm Calm - 0.00 in Rain Light Rain
2:55 PM 45.0 °F - 34.0 °F 65% 30.24 in 10.0 mi Calm Calm - 0.00 in   Overcast
3:55 PM 45.0 °F 43.5 °F 34.0 °F 65% 30.25 in 8.0 mi North 3.5 mph - 0.00 in Rain Light Rain
4:55 PM 43.0 °F 41.3 °F 34.0 °F 71% 30.25 in 9.0 mi ENE 3.5 mph - 0.00 in   Overcast
5:55 PM 39.0 °F 36.8 °F 32.0 °F 76% 30.27 in 10.0 mi West 3.5 mph - N/A   Mostly Cloudy
6:55 PM 37.9 °F - 32.0 °F 79% 30.26 in 7.0 mi Calm Calm - N/A   Overcast
7:55 PM 36.0 °F - 30.9 °F 82% 30.25 in 6.0 mi Calm Calm - N/A   Haze
8:55 PM 37.0 °F 33.3 °F 32.0 °F 82% 30.23 in 3.0 mi ENE 4.6 mph - N/A   Haze
9:55 PM 33.1 °F - 28.9 °F 85% 30.22 in 5.0 mi Calm Calm - N/A   Clear
10:55 PM 33.1 °F - 30.0 °F 89% 30.20 in 10.0 mi Calm Calm - N/A   Mostly Cloudy
11:55 PM 28.9 °F - 27.0 °F 92% 30.17 in 10.0 mi Calm Calm - N/A   Clear